This is the latest recevied weather packets stored in our database for station/object K0WOI. If no packets are shown the sender has not sent any weather packets the latest 10 day(s).
| Time | Temp. | Humidity | Pressure | Rain* | Wind** | Luminosity | Snow |
|---|---|---|---|---|---|---|---|
| 1777734436 | 10.56° C | 46% | 1020.6 hPa | 0 mm | - | 592 W/m² | - |
| 1777734132 | 10.56° C | 49% | 1020.8 hPa | 0 mm | - | 610 W/m² | - |
| 1777733829 | 10.56° C | 48% | 1020.6 hPa | 0 mm | - | 612 W/m² | - |
| 1777733525 | 10.56° C | 47% | 1020.6 hPa | 0 mm | - | 643 W/m² | - |
| 1777733222 | 10° C | 51% | 1020.7 hPa | 0 mm | - | 629 W/m² | - |
| 1777732919 | 10° C | 53% | 1020.6 hPa | 0 mm | - | 620 W/m² | - |
| 1777732615 | 9.44° C | 56% | 1020.7 hPa | 0 mm | - | 562 W/m² | - |
| 1777732313 | 8.89° C | 57% | 1020.6 hPa | 0 mm | - | 525 W/m² | - |
| 1777732009 | 8.89° C | 59% | 1020.8 hPa | 0 mm | - | 336 W/m² | - |
| 1777731706 | 8.33° C | 60% | 1020.9 hPa | 0 mm | - | 173 W/m² | - |
| 1777731403 | 7.78° C | 58% | 1020.9 hPa | 0 mm | - | 98 W/m² | - |
| 1777731101 | 7.78° C | 60% | 1021 hPa | 0 mm | - | 95 W/m² | - |
| 1777730799 | 7.22° C | 61% | 1020.9 hPa | 0 mm | - | 137 W/m² | - |
| 1777730496 | 7.22° C | 64% | 1021 hPa | 0 mm | - | 112 W/m² | - |
| 1777730192 | 6.67° C | 63% | 1021 hPa | 0 mm | - | 82 W/m² | - |
| 1777729889 | 6.11° C | 67% | 1021 hPa | 0 mm | - | 57 W/m² | - |
| 1777729585 | 5.56° C | 73% | 1021 hPa | 0 mm | - | 77 W/m² | - |
| 1777729282 | 5° C | 74% | 1020.9 hPa | 0 mm | - | 63 W/m² | - |
| 1777728979 | 5° C | 75% | 1020.8 hPa | 0 mm | - | 46 W/m² | - |
| 1777728675 | 4.44° C | 77% | 1020.8 hPa | 0 mm | - | 46 W/m² | - |
| 1777728373 | 3.89° C | 79% | 1020.7 hPa | 0 mm | - | 43 W/m² | - |
| 1777728070 | 3.33° C | 80% | 1021 hPa | 0 mm | - | 42 W/m² | - |
| 1777727766 | 3.33° C | 81% | 1021 hPa | 0 mm | - | 41 W/m² | - |
| 1777727463 | 2.78° C | 80% | 1020.8 hPa | 0 mm | - | 39 W/m² | - |
| 1777727161 | 2.78° C | 80% | 1020.8 hPa | 0 mm | - | 38 W/m² | - |
* Rain latest hour (hover to see other rain measurements)
** Current wind speed in m/s (hover to see current wind gust speed)